Flight Track Log - Related Links

Times and Time Zones

All times are in EDT time to prevent confusion due to time zone crossing. See the SWA1725 flight status page for this flight to view local times or setup timezone preferences in your user account.


Time Position Orientation Groundspeed Altitude Reporting Facility
EDT Latitude Longitude Course Direction KTS MPH feet Rate Location/Type
Sun 09:37:45 PM 41.7833 -87.7000 180° South 174 200 2,400  Level Chicago TRACON
Sun 09:38:57 PM 41.7333 -87.6833 166° South 204 235 5,900 3,159 Climbing Chicago TRACON
Sun 09:41:12 PM 41.5722 -87.7817 205° Southwest 298 343 13,300 3,503 Climbing Chicago Center
Sun 09:42:14 PM 41.4861 -87.8344 205° Southwest 333 383 17,400 3,707 Climbing Chicago Center
Sun 09:43:00 PM 41.1554 -87.8833 180° South  Level FlightAware Approximate
Sun 09:43:15 PM 41.3889 -87.8789 199° South 366 421 20,900  Level Chicago Center
Sun 09:44:17 PM 41.2789 -87.8906 185° South 391 450 23,800 2,927 Climbing Chicago Center
Sun 09:45:18 PM 41.1656 -87.8903 180° South 404 465 26,900 2,634 Climbing Chicago Center
Sun 09:46:20 PM 41.0489 -87.8869 179° South 415 478 29,200 2,146 Climbing Chicago Center
Sun 09:47:21 PM 40.9281 -87.8825 178° South 431 496 31,300 2,341 Climbing Chicago Center
Sun 09:48:23 PM 40.7786 -87.8778 179° South 445 512 34,000 2,439 Climbing Chicago Center
Sun 09:49:24 PM 40.6575 -87.8731 178° South 442 509 36,300 2,098 Climbing Chicago Center
Sun 09:50:26 PM 40.5397 -87.8700 179° South 430 495 38,300 1,707 Climbing Chicago Center
Sun 09:51:27 PM 40.4208 -87.8661 179° South 427 491 39,800 927 Climbing Chicago Center
Sun 09:52:16 PM 40.3114 -87.8647 179° South 429 494 40,000 108 Climbing Indianapolis Center
Sun 09:53:18 PM 40.1900 -87.8589 178° South 433 498 40,000  Level Indianapolis Center
Sun 09:54:19 PM 40.0686 -87.8539 178° South 434 499 40,000 98 Level Indianapolis Center
Sun 09:55:20 PM 39.9486 -87.8456 177° South 430 495 40,200 492 Climbing Indianapolis Center
Sun 09:56:21 PM 39.8275 -87.8197 171° South 435 501 41,000 390 Climbing Indianapolis Center
Sun 09:57:23 PM 39.7078 -87.7983 172° South 434 499 41,000  Level Indianapolis Center
Sun 09:58:24 PM 39.5903 -87.7764 172° South 427 491 41,000  Level Indianapolis Center
Sun 09:59:25 PM 39.4725 -87.7536 172° South 427 491 41,000  Level Indianapolis Center
Sun 10:00:26 PM 39.3553 -87.7333 172° South 425 489 41,000  Level Indianapolis Center
Sun 10:01:27 PM 39.2383 -87.7108 172° South 424 488 41,000  Level Indianapolis Center
Sun 10:02:28 PM 39.0969 -87.6856 172° South 425 489 41,000  Level Indianapolis Center
Sun 10:03:29 PM 38.9772 -87.6644 172° South 432 497 41,000  Level Indianapolis Center
Sun 10:04:30 PM 38.8581 -87.6422 172° South 432 497 41,000  Level Indianapolis Center
Sun 10:05:31 PM 38.7372 -87.6206 172° South 437 503 41,000  Level Indianapolis Center
Sun 10:06:32 PM 38.6167 -87.6000 172° South 438 504 41,000  Level Indianapolis Center
Sun 10:07:33 PM 38.4964 -87.5778 172° South 438 504 41,000  Level Indianapolis Center
Sun 10:08:34 PM 38.3761 -87.5564 172° South 439 505 41,000  Level Indianapolis Center
Sun 10:09:35 PM 38.2561 -87.5350 172° South 438 504 41,000  Level Indianapolis Center
Sun 10:10:36 PM 38.1378 -87.5150 172° South 433 498 41,000  Level Indianapolis Center
Sun 10:11:37 PM 38.0183 -87.4933 172° South 433 498 41,000  Level Indianapolis Center
Sun 10:12:38 PM 37.8983 -87.4722 172° South 436 502 41,000  Level Indianapolis Center
Sun 10:13:39 PM 37.7706 -87.4503 172° South 437 503 41,000  Level Indianapolis Center
Sun 10:14:40 PM 37.6497 -87.4281 172° South 435 501 41,000  Level Indianapolis Center
Sun 10:15:32 PM 37.5281 -87.4125 174° South 450 518 41,000  Level Memphis Center
Sun 10:16:32 PM 37.4214 -87.3931 172° South 445 512 41,000  Level Memphis Center
Sun 10:17:32 PM 37.3019 -87.3636 169° South 439 505 41,000  Level Memphis Center
Sun 10:18:32 PM 37.1842 -87.3158 162° South 444 511 41,000  Level Memphis Center
Sun 10:19:32 PM 37.0642 -87.2686 163° South 449 517 41,000  Level Memphis Center
Sun 10:20:32 PM 36.9464 -87.2186 161° South 449 517 41,000  Level Memphis Center
Sun 10:21:32 PM 36.8306 -87.1739 163° South 441 507 41,000  Level Memphis Center
Sun 10:22:32 PM 36.7106 -87.1269 163° South 441 507 41,000  Level Memphis Center
Sun 10:23:32 PM 36.5819 -87.0750 162° South 441 507 41,000  Level Memphis Center
Sun 10:24:32 PM 36.4650 -87.0669 177° South 432 497 41,000  Level Memphis Center
Sun 10:25:32 PM 36.3442 -87.0667 180° South 427 491 41,000  Level Memphis Center
Sun 10:26:32 PM 36.2292 -87.0558 176° South 441 507 41,000  Level Memphis Center
Sun 10:27:32 PM 36.1122 -87.0453 176° South 441 507 41,000 -400 Level Memphis Center
Sun 10:28:32 PM 35.9911 -87.0375 177° South 441 507 40,200 -900 Descending Memphis Center
Sun 10:29:32 PM 35.8553 -87.0250 176° South 441 507 39,200 -655 Descending Memphis Center
Sun 10:32:30 PM 35.4989 -87.0031 177° South 442 509 37,600 -630 Descending Atlanta Center
Sun 10:33:30 PM 35.3822 -86.9986 178° South 437 503 36,700 -950 Descending Atlanta Center
Sun 10:34:30 PM 35.2572 -86.9917 177° South 437 503 35,700 -850 Descending Atlanta Center
Sun 10:35:30 PM 35.1322 -86.9847 177° South 442 509 35,000 -1,947 Descending Atlanta Center
Sun 10:39:32 PM 34.6497 -86.9514 177° South 423 487 25,900 -2,370 Descending Memphis Center
Sun 10:40:06 PM 34.5758 -86.9500 179° South 419 482 24,100 -2,710 Descending Atlanta Center
Sun 10:41:05 PM 34.4631 -86.9511 180° South 382 440 21,700 -2,200 Descending Atlanta Center
Sun 10:42:06 PM 34.3694 -86.9381 173° South 403 464 19,700 -2,083 Descending Atlanta Center
Sun 10:43:06 PM 34.2675 -86.9319 177° South 382 440 17,500 -2,526 Descending Atlanta Center
Sun 10:44:19 PM 34.1361 -86.9300 179° South 345 397 14,100 -2,400 Descending Atlanta Center
Sun 10:45:06 PM 34.0758 -86.9203 172° South 355 409 12,700 -1,850 Descending Atlanta Center
Sun 10:46:06 PM 33.9842 -86.9097 175° South 344 396 10,800 -2,025 Descending Atlanta Center
Sun 10:46:26 PM 33.9508 -86.9036 171° South 304 350 10,000 -1,700 Descending Atlanta Center
Sun 10:47:06 PM 33.9033 -86.8844 161° South 325 374 9,100 -1,500 Descending Atlanta Center
Sun 10:47:26 PM 33.8742 -86.8761 167° South 281 323 8,500 -1,800 Descending Atlanta Center

Login

Don't have an account? Register now (free) for customized features, flight alerts, and more!